Погода в Рубцовске

Погода в Рубцовске : погода сейчас, прогноз погоды и архив. Всё, что Вы хотите узнать о погоде в Рубцовске!

Хотите узнать прогноз погоды в Рубцовске? Тогда Вам сюда: Погода в Рубцовске

Поиск расширенной информации на нашем сайте:

Полезная информация:

Другие новости

Новости СМИ2

Главная страница сайта

Новости сайта

03.07.2017

Напоминаем, что на нашем специализированном сайте Метеоцентр.Азия вы можете получить высокодетализированные автоматические прогнозы погоды по пунктам России, СНГ и мира в авиационном формате (включающие направление и скорость ветра, видимость, явления погоды, количество и форму облачности, нижнюю и верхнюю границу облачности).

Рекомендуем:

Погода в Рубцовске - сегодня

Время (UTC), дата Ветер
(°,м/с) 
Видим.   Явления Облачность Т
(°С)
Тd
(°С)
f(%) Тe
(°С)
Pmin
(гПа)
dP
(гПа)
Po
(мм)
O2
(г/м3)
Тmin Tmax R s Состояние
почвы
09 15.09.19 240 (ЮЗ) 20000 м    6/6 1000 м 
[Cu med, cong]
+20.8 +9.9 50 +22  1017.4  -0.7  744  277           
12 15.09.19 190 (Ю) 20000 м    3/3 1000 м верхняя 
[Cu med, cong|Ci sp]
+20.4 +10.7 54 +23  1017.3  -0.1  744  277    +24.7       
15 15.09.19 180 (Ю) 20000 м    ясно 
+14.2 +10.4 78 +17  1019  1.2  745  283           
18 15.09.19 200 (Ю) 20000 м    3/0 верхняя 
[Ci sp]
+11.6 +10 90 +14  1019.3  745  286           
21 15.09.19 210 (ЮЗ) 20000 м    ясно 
+10.4 +9 91 +12  1019.5  0.1  745  287           
00 16.09.19 270 (З) 2000 м  дымка  ясно 
+7.1 +6.9 99 +8  1020.5  0.6  745  292  +6.2        сухая 
03 16.09.19 180 (Ю) 20000 м    ясно 
+13.6 +9.9 78 +15  1020  0.2  745  284           
06 16.09.19 200 (Ю) 20000 м    ясно 
+21.4 +8.5 44 +21  1018.3  -1  745  277           
09 16.09.19 070 (В) 20000 м    5/5 1000 м 
[Cu med, cong]
+24.4 +5.6 30 +24  1016.3  -1.8  743  274           
12 16.09.19 060 (СВ) 20000 м    1/1 1000 м 
[Sc]
+23 +6.7 35 +23  1015.9  -0.5  743  275    +24.5       
15 16.09.19 060 (СВ) 20000 м    ясно 
+14.4 +8.2 66 +16  1016.6  743  283           
18 16.09.19 010 (С) 20000 м    ясно 
+8.7 +6.5 86 +9  1016.6  -0.4  743  289           
21 16.09.19 030 (СВ) 4000 м  дымка  10/0 верхняя 
[Ci fib]
+6.8 +5.7 93 +8  1016.5  -0.1  743  291           
00 17.09.19 060 (СВ) 4000 м  дымка  5/0 средняя, верхняя 
[Ac trans|Ci sp]
+6.4 +5.7 95 +7  1017.5  0.5  743  292  +5.7        сухая 
03 17.09.19 180 (Ю) 20000 м    4/3 1000 м верхняя 
[Sc|Ci sp]
+16.3 +8 58 +16  1017.3  0.9  744  281           
06 17.09.19 190 (Ю) 7-10{11}  20000 м    ясно 
+21 +7.5 42 +21  1017.5  0.4  744  277           
09 17.09.19 200 (Ю) 7-12{13}  20000 м    6/3 1000 м верхняя 
[Cu hum|Ci sp]
+23.8 +6.6 33 +24  1016.6  -0.5  744  275           
12 17.09.19 250 (З) 5{11}  20000 м  слаб. ливневой дождь  10/10 600 м кучево-дожд. 
[Cb cap]
+17 +10.7 66 +19  1018.2  0.9  744  280    +25.4  0.0     
15 17.09.19 160 (Ю) 10 км  {ливн. осадки}  10/10 600 м кучево-дожд. 
[Cb cap]
+16 +13.1 83 +22  1019.7  1.6  745  281           
18 17.09.19 130 (ЮВ) 20000 м  {ливн. осадки}  10/10 1000 м 
[Sc]
+17 +8.2 56 +17  1018.8  -0.9  745  281           
21 17.09.19 200 (Ю) 3{10}  20000 м  слаб. ливневой дождь  10/10 600 м кучево-дожд. 
[Cb cap]
+16.2 +9.7 65 +18  1020  1.2  746  282           
00 18.09.19 170 (Ю) 5{11}  20000 м  {ливн. осадки}  10/10 600 м кучево-дожд. 
[Cb cap]
+16.7 +8.8 60 +17  1019.1  -0.9  745  281  +15.7    0.0    сухая 
03 18.09.19 180 (Ю) 20000 м    10/0 верхняя 
[Ci sp]
+17.6 +8.5 55 +18  1019.4  0.4  745  281           
06 18.09.19 180 (Ю) 20000 м    10/0 верхняя 
[Ci fib]
+23.8 +4.6 29 +24  1017.9  -1  745  275           
09 18.09.19 230 (ЮЗ) 6-12{12}  20000 м    8/0 верхняя 
[Ci sp]
+26 +3.1 23 +26  1016.8  -0.9  744  273           
Время (UTC), дата Ветер
(°,м/с) 
Видим.   Явления Облачность Т
(°С)
Тd
(°С)
f(%) Тe
(°С)
Pmin
(гПа)
dP
(гПа)
Po
(мм)
O2
(г/м3)
Тmin Tmax R s Состояние
почвы

Для получения пояснительной информации подведите курсор к названию столбца.

ПОГОДА в Рубцовске - архив

Всё, что Вы хотите узнать о погоде в Рубцовске - удобно и подробно!

Выберите нужную дату (начиная с 1 января 2018* года) и нажмите кнопку "Найти".
Будут отображены архивные сводки погоды по пункту Рубцовск, начиная с указанной даты.


Отображать данные в формате CSV (для использования в таблицах Excel)


Внимание! Наш архив погоды предназначен исключительно для личного некоммерческого использования в познавательных целях. Если Вам необходимы официальные справки о состоянии погоды (для производственных, юридических, коммерческих и т.п. целей), обращайтесь в органы Росгидромета.

*Примечание: данная дата относится к архиву по метеостанциям СССР (Россия, СНГ, Балтия).
Архив по метеостанциям Зарубежной Европы и Азии (кроме Китая) хранится 10 дней, по другим регионам земного шара (Китай, Африка, Америка, Австралия, Океания) - 1 день.

Рубцовск - район местоположения метеостанции


Название, широта, долгота, высота метеостанции:
Рубцовск 51.5°ш. 81.2°д. 219 м над ур. моря [Российская Федерация]

Дополнительная информация

В oтличие oт бoльшинства пoгoдных сайтoв мы публикуем пoдрoбную метеoинфoрмацию в детальнoм прoфессиoнальнoм фoрмате.

Характеристики температуры и влажнoсти вoздуха измеряются на высoте 2 м в тени вдали oт зданий и деревьев.
Скoрoсть ветра измеряется на высoте 10 м (на урoвне рoста челoвека скoрoсть ветра ниже в 1.5-2 раза). Если метеoстанция нахoдится в гoрoде или в лесу, тo скoрoсть ветра занижена на 2-4 м/с пo сравнению с oткрытым местoм. Скoрoсть ветра над акватoриями крупных рек и oзёр, а также на вершинах хoлмoв на 2-5 м/с выше, чем в oбычных услoвиях.
Атмoсфернoе давление в разных тoчках местнoсти мoжет значительнo oтличаться oт давления на метеoстанции, в зависимoсти oт услoвий рельефа (при пoдъёме на 10 м давление пoнижается примернo на 1 мм рт.ст.).